| time (UTC) | temp F | wind direction | speed knots | gust knots | rain 1hr in | rain 24hr in | rain mn in | humidity % | barometer mb |
| 20260506153018 | 69 | 214 | 0.0 | 3.5 | 0.00 | 0.00 | 0.00 | 71 | 1012.9 |
| 20260506151518 | 69 | 150 | 0.9 | 4.3 | 0.00 | 0.00 | 0.00 | 70 | 1012.9 |
| 20260506150017 | 69 | 193 | 1.7 | 6.1 | 0.00 | 0.00 | 0.00 | 68 | 1012.5 |
| 20260506144513 | 68 | 15 | 0.9 | 5.2 | 0.00 | 0.00 | 0.00 | 69 | 1012.6 |
| 20260506143011 | 68 | 155 | 1.7 | 6.1 | 0.00 | 0.00 | 0.00 | 71 | 1012.8 |
| 20260506141511 | 68 | 131 | 0.9 | 3.5 | 0.00 | 0.00 | 0.00 | 71 | 1012.9 |
| 20260506140008 | 66 | 299 | 0.9 | 4.3 | 0.00 | 0.00 | 0.00 | 73 | 1012.7 |
| 20260506134507 | 66 | 239 | 0.0 | 6.1 | 0.00 | 0.00 | 0.00 | 75 | 1013.2 |
| 20260506133006 | 66 | 171 | 1.7 | 6.1 | 0.00 | 0.00 | 0.00 | 74 | 1012.8 |
| 20260506131505 | 66 | 124 | 0.9 | 7.0 | 0.00 | 0.00 | 0.00 | 74 | 1012.8 |
| 20260506130006 | 65 | 158 | 0.0 | 5.2 | 0.00 | 0.00 | 0.00 | 76 | 1012.7 |
| 20260506124504 | 65 | 323 | 2.6 | 7.8 | 0.00 | 0.00 | 0.00 | 76 | 1012.5 |
| 20260506123003 | 64 | 280 | 1.7 | 4.3 | 0.00 | 0.00 | 0.00 | 78 | 1012.4 |
| 20260506121502 | 63 | 274 | 0.0 | 5.2 | 0.00 | 0.00 | 0.00 | 80 | 1012.2 |
| 20260506120002 | 62 | 270 | 0.0 | 2.6 | 0.00 | 0.00 | 0.00 | 80 | 1012.5 |
| 20260506114607 | 62 | 152 | 0.9 | 4.3 | 0.00 | 0.00 | 0.00 | 80 | 1012.6 |
| 20260506114500 | 62 | 219 | 0.9 | 4.3 | 0.00 | 0.00 | 0.00 | 81 | 1012.5 |
| 20260506113101 | 62 | 164 | 0.0 | 3.5 | 0.00 | 0.00 | 0.00 | 81 | 1012.5 |
| 20260506111559 | 61 | 133 | 1.7 | 4.3 | 0.00 | 0.00 | 0.00 | 81 | 1012.4 |
| 20260506110104 | 61 | 264 | 0.0 | 3.5 | 0.00 | 0.00 | 0.00 | 81 | 1012.5 |
| 20260506104557 | 61 | 293 | 0.9 | 4.3 | 0.00 | 0.00 | 0.00 | 81 | 1012.5 |
| 20260506103056 | 61 | 219 | 0.9 | 4.3 | 0.00 | 0.00 | 0.00 | 81 | 1012.5 |
| 20260506101603 | 61 | 234 | 0.9 | 5.2 | 0.00 | 0.00 | 0.00 | 81 | 1012.3 |
| 20260506100054 | 61 | 253 | 0.0 | 3.5 | 0.00 | 0.00 | 0.00 | 81 | 1012.2 |
| 20260506094615 | 61 | 217 | 0.9 | 5.2 | 0.00 | 0.00 | 0.00 | 80 | 1012.3 |
| 20260506093054 | 61 | 308 | 0.0 | 6.1 | 0.00 | 0.00 | 0.00 | 80 | 1012.5 |
| 20260506091549 | 61 | 176 | 0.0 | 2.6 | 0.00 | 0.00 | 0.00 | 80 | 1012.6 |
| 20260506090048 | 61 | 295 | 0.0 | 5.2 | 0.00 | 0.00 | 0.00 | 79 | 1012.4 |
| 20260506084548 | 61 | 157 | 0.0 | 2.6 | 0.00 | 0.00 | 0.00 | 79 | 1012.5 |
| 20260506083046 | 61 | 274 | 0.0 | 3.5 | 0.00 | 0.00 | 0.00 | 79 | 1012.5 |
| 20260506081544 | 62 | 241 | 0.9 | 5.2 | 0.00 | 0.00 | 0.00 | 78 | 1012.7 |
| 20260506073043 | 63 | 252 | 0.9 | 3.5 | 0.00 | 0.00 | 0.00 | 76 | 1012.7 |
| 20260506071538 | 63 | 205 | 0.9 | 3.5 | 0.00 | 0.00 | 0.00 | 76 | 1012.7 |
| 20260506061535 | 64 | 169 | 1.7 | 7.0 | 0.00 | 0.00 | 0.00 | 75 | 1012.9 |
| 20260506044515 | 66 | 283 | 0.9 | 5.2 | 0.00 | 0.00 | 0.00 | 72 | 1013.5 |
| 20260506043013 | 66 | 302 | 1.7 | 7.0 | 0.00 | 0.00 | 0.00 | 71 | 1013.7 |
| 20260506041512 | 66 | 269 | 0.9 | 4.3 | 0.00 | 0.00 | 0.00 | 71 | 1013.7 |
| 20260506040032 | 67 | 229 | 1.7 | 7.0 | 0.00 | 0.00 | 0.00 | 70 | 1013.7 |
| 20260506034509 | 67 | 268 | 0.0 | 7.8 | 0.00 | 0.00 | 0.00 | 70 | 1013.6 |
| 20260506033007 | 67 | 307 | 0.9 | 4.3 | 0.00 | 0.00 | 0.00 | 70 | 1013.4 |
| 20260506031517 | 68 | 84 | 1.7 | 5.2 | 0.00 | 0.00 | 0.00 | 70 | 1013.5 |
| 20260506030007 | 68 | 281 | 0.9 | 4.3 | 0.00 | 0.00 | 0.00 | 69 | 1013.6 |
| 20260506024515 | 69 | 35 | 0.0 | 3.5 | 0.00 | 0.00 | 0.00 | 68 | 1013.5 |
| 20260506023004 | 69 | 183 | 0.9 | 3.5 | 0.00 | 0.00 | 0.00 | 65 | 1013.4 |
| 20260506021506 | 69 | 290 | 0.0 | 3.5 | 0.00 | 0.00 | 0.00 | 63 | 1013.3 |
| 20260506020003 | 70 | 283 | 0.9 | 3.5 | 0.00 | 0.00 | 0.00 | 61 | 1013.1 |
| 20260506014501 | 70 | 218 | 0.0 | 3.5 | 0.00 | 0.00 | 0.00 | 61 | 1012.9 |
| 20260506013002 | 70 | 210 | 0.0 | 1.7 | 0.00 | 0.00 | 0.00 | 61 | 1012.8 |
| 20260506011501 | 71 | 244 | 0.0 | 2.6 | 0.00 | 0.00 | 0.00 | 59 | 1012.6 |
| 20260506010003 | 71 | 248 | 0.0 | 3.5 | 0.00 | 0.00 | 0.00 | 58 | 1012.5 |
| 20260506004600 | 72 | 262 | 0.0 | 2.6 | 0.00 | 0.00 | 0.00 | 57 | 1012.3 |
| 20260506003100 | 72 | 243 | 0.0 | 1.7 | 0.00 | 0.00 | 0.00 | 55 | 1012.3 |
| 20260506001559 | 73 | 289 | 0.0 | 1.7 | 0.00 | 0.00 | 0.00 | 54 | 1012.2 |
| 20260505234604 | 75 | 290 | 0.9 | 3.5 | 0.00 | 0.00 | 0.00 | 50 | 1012.0 |
| 20260505233110 | 76 | 220 | 0.0 | 4.3 | 0.00 | 0.00 | 0.00 | 49 | 1012.0 |
| 20260505231602 | 76 | 232 | 1.7 | 7.0 | 0.00 | 0.00 | 0.00 | 48 | 1011.9 |
| 20260505230054 | 78 | 273 | 0.9 | 5.2 | 0.00 | 0.00 | 0.00 | 46 | 1012.0 |
| 20260505224549 | 78 | 150 | 1.7 | 6.1 | 0.00 | 0.00 | 0.00 | 45 | 1012.1 |
| 20260505223052 | 79 | 184 | 0.9 | 4.3 | 0.00 | 0.00 | 0.00 | 46 | 1012.1 |
| 20260505221549 | 77 | 281 | 1.7 | 6.1 | 0.00 | 0.00 | 0.00 | 45 | 1012.0 |
| 20260505220045 | 78 | 109 | 1.7 | 4.3 | 0.00 | 0.00 | 0.00 | 44 | 1012.2 |
| 20260505214550 | 79 | 295 | 2.6 | 7.8 | 0.00 | 0.00 | 0.00 | 42 | 1012.0 |
| 20260505213043 | 81 | 280 | 1.7 | 7.8 | 0.00 | 0.00 | 0.00 | 40 | 1012.2 |
| 20260505211542 | 81 | 276 | 0.9 | 8.7 | 0.00 | 0.00 | 0.00 | 42 | 1012.2 |
| 20260505210042 | 81 | 171 | 1.7 | 7.0 | 0.00 | 0.00 | 0.00 | 41 | 1012.3 |
| 20260505204542 | 81 | 257 | 1.7 | 7.8 | 0.00 | 0.00 | 0.00 | 40 | 1012.3 |
| 20260505203037 | 81 | 66 | 0.9 | 7.8 | 0.00 | 0.00 | 0.00 | 41 | 1012.3 |
| 20260505201536 | 80 | 274 | 1.7 | 5.2 | 0.00 | 0.00 | 0.00 | 41 | 1012.3 |
| 20260505200040 | 81 | 267 | 1.7 | 7.0 | 0.00 | 0.00 | 0.00 | 40 | 1012.6 |
| 20260505194530 | 83 | 150 | 1.7 | 5.2 | 0.00 | 0.00 | 0.00 | 41 | 1012.7 |
| 20260505193028 | 82 | 190 | 1.7 | 6.1 | 0.00 | 0.00 | 0.00 | 39 | 1013.0 |
| 20260505191526 | 83 | 131 | 0.9 | 7.0 | 0.00 | 0.00 | 0.00 | 37 | 1013.1 |
| 20260505190033 | 83 | 286 | 2.6 | 8.7 | 0.00 | 0.00 | 0.00 | 36 | 1013.4 |
| 20260505184522 | 83 | 276 | 2.6 | 6.1 | 0.00 | 0.00 | 0.00 | 36 | 1013.8 |
| 20260505183020 | 83 | 302 | 1.7 | 6.1 | 0.00 | 0.00 | 0.00 | 37 | 1014.1 |
| 20260505181519 | 82 | 226 | 1.7 | 7.8 | 0.00 | 0.00 | 0.00 | 38 | 1014.1 |
| 20260505180018 | 82 | 174 | 1.7 | 9.6 | 0.00 | 0.00 | 0.00 | 39 | 1014.1 |
| 20260505174517 | 82 | 198 | 2.6 | 7.0 | 0.00 | 0.00 | 0.00 | 38 | 1014.1 |
| 20260505173017 | 82 | 220 | 1.7 | 6.1 | 0.00 | 0.00 | 0.00 | 41 | 1014.1 |
| 20260505171521 | 82 | 282 | 0.9 | 4.3 | 0.00 | 0.00 | 0.00 | 42 | 1014.2 |
| 20260505170016 | 81 | 221 | 1.7 | 4.3 | 0.00 | 0.00 | 0.00 | 42 | 1014.3 |
| 20260505164511 | 81 | 142 | 0.9 | 7.8 | 0.00 | 0.00 | 0.00 | 42 | 1014.6 |
| 20260505163010 | 80 | 141 | 0.9 | 6.1 | 0.00 | 0.00 | 0.00 | 39 | 1014.6 |
| 20260505161508 | 80 | 330 | 2.6 | 7.0 | 0.00 | 0.00 | 0.00 | 41 | 1015.0 |